This is the latest recevied weather packets stored in our database for station/object 9W2RUT-G. If no packets are shown the sender has not sent any weather packets the latest 10 day(s).
| Time | Temp. | Humidity | Pressure | Rain* | Wind** | Luminosity | Snow |
|---|---|---|---|---|---|---|---|
| 1777875379 | 35° C | 44% | 1013.7 hPa | - | - | - | - |
| 1777875340 | 35° C | 44% | 1013.7 hPa | - | - | - | - |
| 1777874464 | 35° C | 43% | 1014 hPa | - | - | - | - |
| 1777873536 | 35° C | 44% | 1014.5 hPa | - | - | - | - |
| 1777872633 | 35° C | 43% | 1014.4 hPa | - | - | - | - |
| 1777871732 | 34.44° C | 44% | 1014.7 hPa | - | - | - | - |
| 1777870868 | 34.44° C | 45% | 1014.6 hPa | - | - | - | - |
| 1777870832 | 34.44° C | 45% | 1014.6 hPa | - | - | - | - |
| 1777869931 | 34.44° C | 45% | 1014.5 hPa | - | - | - | - |
| 1777869031 | 33.89° C | 46% | 1014.5 hPa | - | - | - | - |
| 1777868131 | 33.89° C | 46% | 1014.7 hPa | - | - | - | - |
| 1777867267 | 31.67° C | 52% | 1014.9 hPa | - | - | - | - |
| 1777867230 | 31.67° C | 52% | 1014.9 hPa | - | - | - | - |
| 1777866358 | 32.78° C | 47% | 1014.8 hPa | - | - | - | - |
| 1777865452 | 33.33° C | 46% | 1014.8 hPa | - | - | - | - |
| 1777864551 | 32.78° C | 46% | 1014.8 hPa | - | - | - | - |
| 1777863651 | 32.78° C | 46% | 1015 hPa | - | - | - | - |
| 1777862751 | 32.78° C | 47% | 1015 hPa | - | - | - | - |
| 1777861851 | 32.78° C | 46% | 1015.1 hPa | - | - | - | - |
| 1777860951 | 32.78° C | 46% | 1015.4 hPa | - | - | - | - |
| 1777860050 | 32.78° C | 46% | 1015.4 hPa | - | - | - | - |
| 1777859150 | 32.78° C | 45% | 1015.2 hPa | - | - | - | - |
| 1777858250 | 32.78° C | 46% | 1015.1 hPa | - | - | - | - |
| 1777857349 | 32.78° C | 46% | 1014.8 hPa | - | - | - | - |
| 1777856511 | 32.22° C | 47% | 1014.7 hPa | - | - | - | - |
* Rain since midnight (hover to see other rain measurements)
** Current wind speed in m/s (hover to see current wind gust speed)